Regional Weather Roundup
Issued by NWS Charleston, WV

Home | Current Version | Previous Version | Text Only | Print | Product List | Glossary Off
Versions: 1 2 3 4 5 6 7 8 9 10 11 12 13 14 15 16 17 18 19 20 21 22 23 24 25 26 27 28

000
ASUS41 KRLX 152110
RWRRLX
West Virginia Regional Weather Roundup
National Weather Service Charleston WV
500 PM EDT TUE AUG 15 2017

Note: "fair" indicates few or no clouds below 12,000 feet with no
significant weather and/or obstructions to visibility.

WVZ003-152200-
Northern Panhandle of West Virginia

CITY           SKY/WX    TMP DP  RH WIND       PRES   REMARKS
WHEELING       MOSUNNY   84  64  50 NW6       29.91F
$$

WVZ009-152200-
Northwest West Virginia

CITY           SKY/WX    TMP DP  RH WIND       PRES   REMARKS
PARKERSBURG    PTSUNNY   86  70  58 VRB6      29.93F
$$

WVZ006-152200-
Western West Virginia

CITY           SKY/WX    TMP DP  RH WIND       PRES   REMARKS
HUNTINGTON     PTSUNNY   86  71  60 SW5       29.90F
$$

WVZ015-152200-
West Central West Virginia

CITY           SKY/WX    TMP DP  RH WIND       PRES   REMARKS
CHARLESTON     MOSUNNY   85  69  58 NW6       29.91F
$$

WVZ022-031-152200-
North Central West Virginia

CITY           SKY/WX    TMP DP  RH WIND       PRES   REMARKS
CLARKSBURG     MOSUNNY   86  68  54 W8        29.92F
MORGANTOWN     PTSUNNY   83  66  56 NW6       29.93S
$$

WVZ025-035-042-045-152200-
Southern West Virginia

CITY           SKY/WX    TMP DP  RH WIND       PRES   REMARKS
BECKLEY        MOSUNNY   80  67  64 N9        30.00S
LOGAN            N/A     82  70  65 W7        29.96R
BLUEFIELD      PTSUNNY   74  66  76 NW6       30.03S
LEWISBURG      PTSUNNY   78  65  63 NW8       29.98S
$$

WVZ047-152200-
Northern Mountains of West Virginia

CITY           SKY/WX    TMP DP  RH WIND       PRES   REMARKS
ELKINS         MOSUNNY   81  66  60 NW6       29.97F
$$

WVZ052-152200-
Eastern Panhandle of West Virginia

CITY           SKY/WX    TMP DP  RH WIND       PRES   REMARKS
MARTINSBURG    PTSUNNY   82  70  66 E6        29.89S
PETERSBURG     SUNNY     85  74  71 SE3       29.91S
$$




USA.gov is the U.S. government's official web portal to all federal, state and local government web resources and services.